Location: ??????
(38.5153°N, 23.0340°E)
Time: 14:47:19
(UTC+00:00)

Cosmos 2369 - Pass Details

Date: 13 December 2025
Orbit: 839 x 854 km, 71.0° (Epoch: 17 January)

Event Time Altitude Azimuth Distance (km) Brightness Sun altitude
Rises 16:10:29 0° 189° (S) 3,403 7.3 -12.0°
Reaches altitude 10° 16:12:58 10° 185° (S) 2,472 6.5 -12.5°
Maximum altitude 16:18:31 57° 108° (ESE) 995 3.8 -13.5°
Enters shadow 16:23:40 12° 32° (NNE) 2,325 5.5 -14.5°
